カタログに戻る

STARLINK-3543

運用中通信VLEO
NORAD 51716·PAYLOAD·🇺🇸 United States

打ち上げ Feb 21, 2022 から Cape Canaveral Space Force Station

Loading…

次のパス (今後24時間)

TLE

最新Source: CelesTrak SupGP

元期: Sep 15, 2026, 02:31 UTC

1 51716C 22016C   26258.10534722 -.00015203  00000+0 -46135-3 0  2580
2 51716  53.1596 189.2228 0001398  84.3389  93.7208 15.33553571    17

AllMySatでSTARLINK-3543をリアルタイム追跡

Download on the App Store